Weather History for KSJS - January, 2014

Change the Weather History Date:

Friday, January 31, 2014

  Actual Average Record
Temperature  
Mean Temperature 38 °F -  
Max Temperature 44 °F - - ()
Min Temperature 32 °F - - ()
Degree Days  
Heating Degree Days 27    
Moisture  
Dew Point 11 °F    
Average Humidity 34    
Maximum Humidity 54    
Minimum Humidity 26    
Precipitation  
Precipitation 0.00 in - - ()
Sea Level Pressure  
Sea Level Pressure 30.12 in    
Wind  
Wind Speed 3 mph (SW)    
Max Wind Speed 8 mph    
Max Gust Speed -    
Visibility 10 miles    
Events      
T = Trace of Precipitation, MM = Missing Value Source: NWS Daily Summary

Daily Weather History Graph

Daily Weather History Graph

Search for Another Location

Airport or City:

Trip Planner

Search our weather history database for the weather conditions in past years. The results will help you decide how hot, cold, wet, or windy it might be!

Date:

Astronomy

Jan. 31, 2014 Rise Set
Actual Time 7:35 AM EST 5:53 PM EST
Civil Twilight 7:07 AM EST 6:20 PM EST
Nautical Twilight 6:36 AM EST 6:52 PM EST
Astronomical Twilight 6:05 AM EST 7:23 PM EST
Moon 7:46 AM EST (1/31) 7:13 PM EST (1/31)
Length of Visible Light 11h 13m
Length of Day
10h 17m
New Moon, 1% of the Moon is Illuminated
Jan 31
New Moon
Feb 6
First Quarter
Feb 14
Full
Feb 22
Last Quarter
Mar 1
New

Hourly Weather History & Observations

Time (EST) Temp. Windchill Dew Point Humidity Pressure Visibility Wind Dir Wind Speed Gust Speed Precip Events Conditions
12:15 AM 33.6 °F 29.4 °F 5.9 °F 31% 30.05 in 10.0 mi SSW 4.6 mph - N/A   Clear
12:35 AM 33.8 °F 29.6 °F 5.9 °F 31% 30.05 in 10.0 mi SSW 4.6 mph - N/A   Clear
12:55 AM 34.3 °F - 5.2 °F 29% 30.06 in 10.0 mi Calm Calm - N/A   Clear
1:15 AM 34.0 °F 31.0 °F 4.6 °F 29% 30.06 in 10.0 mi SW 3.5 mph - N/A   Clear
1:35 AM 34.9 °F 30.8 °F 3.9 °F 27% 30.07 in 10.0 mi SW 4.6 mph - N/A   Clear
1:55 AM 33.6 °F 30.6 °F 4.8 °F 30% 30.07 in 10.0 mi SSW 3.5 mph - N/A   Clear
2:15 AM 34.2 °F 31.2 °F 4.5 °F 29% 30.08 in 10.0 mi SSW 3.5 mph - N/A   Clear
2:35 AM 32.9 °F 29.8 °F 5.9 °F 32% 30.08 in 10.0 mi SSW 3.5 mph - N/A   Clear
2:55 AM 32.7 °F 29.6 °F 6.3 °F 33% 30.08 in 10.0 mi South 3.5 mph - N/A   Clear
3:15 AM 32.9 °F - 6.3 °F 33% 30.09 in 10.0 mi Calm Calm - N/A   Clear
3:35 AM 32.9 °F - 6.8 °F 33% 30.09 in 10.0 mi Calm Calm - N/A   Clear
3:55 AM 33.8 °F 30.8 °F 7.0 °F 33% 30.09 in 10.0 mi SSW 3.5 mph - N/A   Clear
4:15 AM 34.7 °F 31.8 °F 6.3 °F 30% 30.08 in 10.0 mi SSW 3.5 mph - N/A   Clear
4:35 AM 34.9 °F 32.0 °F 5.9 °F 30% 30.09 in 10.0 mi SSW 3.5 mph - N/A   Scattered Clouds
4:55 AM 34.3 °F 30.2 °F 5.9 °F 30% 30.10 in 10.0 mi SW 4.6 mph - N/A   Clear
5:15 AM 32.7 °F 29.6 °F 9.0 °F 37% 30.10 in 10.0 mi South 3.5 mph - N/A   Mostly Cloudy
5:35 AM 33.8 °F 29.6 °F 7.5 °F 33% 30.10 in 10.0 mi South 4.6 mph - N/A   Overcast
5:55 AM 34.5 °F - 7.3 °F 32% 30.10 in 10.0 mi Calm Calm - N/A   Mostly Cloudy
6:15 AM 34.7 °F 31.8 °F 7.5 °F 32% 30.11 in 10.0 mi South 3.5 mph - N/A   Mostly Cloudy
6:35 AM 33.4 °F 30.4 °F 7.3 °F 34% 30.12 in 10.0 mi SSW 3.5 mph - N/A   Scattered Clouds
6:55 AM 33.3 °F 30.2 °F 7.3 °F 34% 30.12 in 10.0 mi South 3.5 mph - N/A   Clear
7:15 AM 32.9 °F 29.8 °F 7.2 °F 34% 30.13 in 10.0 mi SSW 3.5 mph - N/A   Clear
7:35 AM 33.3 °F 30.2 °F 7.7 °F 34% 30.13 in 10.0 mi SSW 3.5 mph - N/A   Scattered Clouds
7:55 AM 32.9 °F 28.5 °F 8.2 °F 36% 30.14 in 10.0 mi SSW 4.6 mph - N/A   Mostly Cloudy
8:15 AM 32.7 °F - 9.0 °F 37% 30.14 in 10.0 mi Calm Calm - N/A   Scattered Clouds
8:35 AM 34.7 °F - 9.7 °F 35% 30.14 in 10.0 mi Calm Calm - N/A   Mostly Cloudy
8:55 AM 36.5 °F 33.9 °F 9.1 °F 32% 30.15 in 10.0 mi SW 3.5 mph - N/A   Mostly Cloudy
9:15 AM 36.9 °F 33.1 °F 8.8 °F 31% 30.16 in 10.0 mi SW 4.6 mph - N/A   Scattered Clouds
9:35 AM 37.9 °F 33.5 °F 9.3 °F 31% 30.16 in 10.0 mi SW 5.8 mph - N/A   Clear
10:55 AM 41.9 °F 36.9 °F 10.0 °F 27% 30.18 in 10.0 mi SW 8.1 mph - N/A   Mostly Cloudy
11:15 AM 42.8 °F 39.3 °F 11.1 °F 28% 30.17 in 10.0 mi West 5.8 mph - N/A   Mostly Cloudy
11:35 AM 43.0 °F 38.8 °F 10.8 °F 27% 30.17 in 10.0 mi West 6.9 mph - N/A   Scattered Clouds
11:55 AM 43.9 °F 41.3 °F 11.3 °F 27% 30.17 in 10.0 mi WNW 4.6 mph - N/A   Scattered Clouds
12:15 PM 44.6 °F 42.2 °F 11.1 °F 26% 30.16 in 10.0 mi West 4.6 mph - N/A   Scattered Clouds
12:35 PM 43.2 °F 40.5 °F 10.4 °F 26% 30.15 in 10.0 mi West 4.6 mph - N/A   Mostly Cloudy
12:55 PM 43.0 °F 41.3 °F 10.9 °F 27% 30.14 in 10.0 mi West 3.5 mph - N/A   Overcast
1:15 PM 43.0 °F 39.5 °F 11.3 °F 28% 30.13 in 10.0 mi WSW 5.8 mph - N/A   Overcast
1:35 PM 43.2 °F 40.5 °F 11.8 °F 28% 30.13 in 10.0 mi WSW 4.6 mph - N/A   Overcast
1:50 PM 43.2 °F 39.0 °F 12.2 °F 28% 30.13 in 10.0 mi WSW 6.9 mph - N/A   Overcast
2:15 PM 43.0 °F 38.8 °F 12.4 °F 29% 30.13 in 10.0 mi WSW 6.9 mph - N/A   Overcast
2:35 PM 43.5 °F 40.1 °F 12.7 °F 29% 30.12 in 10.0 mi WSW 5.8 mph - N/A   Overcast
2:55 PM 43.7 °F 39.1 °F 12.7 °F 29% 30.12 in 10.0 mi SW 8.1 mph - N/A   Overcast
3:15 PM 43.3 °F 39.9 °F 13.3 °F 30% 30.12 in 10.0 mi SW 5.8 mph - N/A   Overcast
3:35 PM 43.0 °F 40.3 °F 13.5 °F 30% 30.12 in 10.0 mi SW 4.6 mph - N/A   Overcast
3:55 PM 43.0 °F 39.5 °F 13.6 °F 30% 30.13 in 10.0 mi SW 5.8 mph - N/A   Overcast
4:15 PM 43.0 °F 41.3 °F 14.0 °F 31% 30.13 in 10.0 mi SSW 3.5 mph - N/A   Overcast
4:35 PM 42.8 °F 39.3 °F 14.0 °F 31% 30.13 in 10.0 mi SSW 5.8 mph - N/A   Overcast
4:55 PM 42.6 °F - 14.5 °F 32% 30.14 in 10.0 mi Calm Calm - N/A   Overcast
5:15 PM 42.3 °F - 14.5 °F 33% 30.13 in 10.0 mi Calm Calm - N/A   Overcast
5:35 PM 42.3 °F 40.5 °F 14.4 °F 32% 30.14 in 10.0 mi South 3.5 mph - N/A   Overcast
5:55 PM 41.5 °F - 15.1 °F 34% 30.14 in 10.0 mi Calm Calm - N/A   Overcast
6:15 PM 40.1 °F - 17.1 °F 39% 30.13 in 10.0 mi Calm Calm - N/A   Overcast
6:35 PM 38.3 °F 34.8 °F 20.5 °F 49% 30.12 in 10.0 mi ESE 4.6 mph - N/A   Overcast
7:00 PM 39.6 °F - 16.9 °F 40% 30.12 in 10.0 mi Calm Calm - N/A   Overcast
7:15 PM 39.2 °F - 16.9 °F 40% 30.12 in 10.0 mi Calm Calm - N/A   Overcast
7:35 PM 40.6 °F - 14.5 °F 35% 30.12 in 10.0 mi Calm Calm - N/A   Scattered Clouds
7:55 PM 39.4 °F - 14.7 °F 37% 30.13 in 10.0 mi Calm Calm - N/A   Clear
8:15 PM 38.5 °F 36.1 °F 15.4 °F 39% 30.13 in 10.0 mi East 3.5 mph - N/A   Clear
8:35 PM 38.5 °F 36.1 °F 16.2 °F 40% 30.12 in 10.0 mi East 3.5 mph - N/A   Clear
8:55 PM 36.7 °F - 17.4 °F 46% 30.13 in 10.0 mi Calm Calm - N/A   Clear
9:15 PM 38.5 °F - 16.2 °F 40% 30.12 in 10.0 mi Calm Calm - N/A   Clear
9:35 PM 36.5 °F - 18.3 °F 48% 30.12 in 10.0 mi Calm Calm - N/A   Clear
9:55 PM 37.4 °F 34.9 °F 16.3 °F 42% 30.12 in 10.0 mi SE 3.5 mph - N/A   Clear
10:15 PM 36.1 °F - 16.7 °F 45% 30.12 in 10.0 mi Calm Calm - N/A   Mostly Cloudy
10:35 PM 36.5 °F - 16.7 °F 45% 30.11 in 10.0 mi Calm Calm - N/A   Overcast
10:55 PM 34.9 °F - 18.1 °F 51% 30.10 in 10.0 mi Calm Calm - N/A   Overcast
11:15 PM 36.1 °F 33.5 °F 18.7 °F 49% 30.10 in 10.0 mi East 3.5 mph - N/A   Overcast
11:35 PM 36.5 °F 32.7 °F 20.3 °F 52% 30.09 in 10.0 mi ESE 4.6 mph - N/A   Overcast
11:55 PM 37.4 °F - 21.9 °F 54% 30.09 in 10.0 mi Calm Calm - N/A   Overcast